MV Melite — V7TM5 — position and weather

sailwx.info

Track history (hours):
 
Tides and Currents Weather Stations Pressure Air Temp Water Temp Dewpoint Dewpoint Depression Visibility Wind Speed Wind Dir Waves Ship Positions

MV Melite

Last reported at 2016-Aug-28 21:33 UTC. Time now 2016-Aug-28 22:24 UTC.
Position N 28°10' W 013°28'.

Length 225 m; draft 12.4 m.

Type: Cargo ship. MMSI: 538003832.

Date/timePositionNaut miles runAvg speedWind from/ knotsBaromVisibWave heightAir tempDewpointWater temp
2016-Aug-28 21:33N 28°10' W 013°28'1010.1
2016-Aug-28 20:33N 28°02' W 013°34'1010.2
2016-Aug-28 19:33N 27°53' W 013°40'1010.5
2016-Aug-28 18:33N 27°45' W 013°47'1010.2
2016-Aug-28 17:33N 27°36' W 013°53'10 9.8
2016-Aug-28 16:33N 27°28' W 013°59'10 9.7
2016-Aug-28 15:33N 27°20' W 014°05'10 9.8
2016-Aug-28 14:33N 27°12' W 014°11'10610.6
2016-Aug-28 04:31N 25°44' W 015°18'5110.2
2016-Aug-27 23:33N 25°01' W 015°48'  
Track history (hours):
 
Tides and Currents Weather Stations Pressure Air Temp Water Temp Dewpoint Dewpoint Depression Visibility Wind Speed Wind Dir Waves Ship Positions

MV Melite

Last reported at 2016-Aug-28 21:33 UTC. Time now 2016-Aug-28 22:24 UTC.
Position N 28°10' W 013°28'.

Length 225 m; draft 12.4 m.

Type: Cargo ship. MMSI: 538003832.

Date/timePositionNaut miles runAvg speedWind from/ knotsBaromVisibWave heightAir tempDewpointWater temp
2016-Aug-28 21:33N 28°10' W 013°28'1010.1
2016-Aug-28 20:33N 28°02' W 013°34'1010.2
2016-Aug-28 19:33N 27°53' W 013°40'1010.5
2016-Aug-28 18:33N 27°45' W 013°47'1010.2
2016-Aug-28 17:33N 27°36' W 013°53'10 9.8
2016-Aug-28 16:33N 27°28' W 013°59'10 9.7
2016-Aug-28 15:33N 27°20' W 014°05'10 9.8
2016-Aug-28 14:33N 27°12' W 014°11'10610.6
2016-Aug-28 04:31N 25°44' W 015°18'5110.2
2016-Aug-27 23:33N 25°01' W 015°48'  

Dump ship's entire track history